COMS 1

Last updated on Tue Oct 08 2024 00:02:17 GMT+0000 (Coordinated Universal Time)

1 36744U 10032A 24281.55283753 -.00000332 00000+0 00000+0 0 9992 2 36744 3.2356 83.1933 0000808 98.6926 161.9942 1.00271654 44891
UTC large
Height (km)
Speed (km/s)
/
Latitude / Longitude
Inclination (degrees)
Orbital Period (minutes)
Azimuth
Elevation
Range (km)
Doppler Factor

Next 0 passes for location: London (51.5072 / 0.1276)

Sorry there are no passes over London.